When you browse on this site, cookies collect data to enhance your experience and personalize the content and advertising you see.
Visit our Privacy Policy to learn more. By continuing to use the site, you agree to this use of cookies and data.
  • In Germany
  • List of Countries
  • For 7 days
  • Water Temperature
  • Weather Map
  • Weather Widgets
  • user-avatar
    Login

    Hourly Weather Orange Walk

    Today, 21 January, Tuesday

    Time Temperature Precipitation Wind Pressure Humidity
    00:00 +21°C° 0 mm 2 mps 763 mmHg 97%
    01:00 +20°C° 0 mm 2 mps 763 mmHg 97%
    02:00 +20°C° 0 mm 2 mps 762 mmHg 96%
    03:00 +20°C° 0 mm 2 mps 762 mmHg 96%
    04:00 +20°C° 0 mm 2 mps 762 mmHg 96%
    05:00 +19°C° 0 mm 2 mps 763 mmHg 96%
    06:00 +19°C° 0 mm 2 mps 763 mmHg 95%
    07:00 +20°C° 0 mm 3 mps 764 mmHg 90%
    08:00 +21°C° 0 mm 3 mps 764 mmHg 86%
    09:00 +21°C° 0 mm 4 mps 765 mmHg 81%
    10:00 +23°C° 0 mm 4 mps 765 mmHg 74%
    11:00 +25°C° 0 mm 4 mps 765 mmHg 67%
    12:00 +26°C° 0 mm 3 mps 764 mmHg 60%
    13:00 +26°C° 0 mm 3 mps 764 mmHg 60%
    14:00 +26°C° 0 mm 3 mps 763 mmHg 59%
    15:00 +26°C° 0 mm 3 mps 762 mmHg 59%
    16:00 +25°C° 0 mm 2 mps 762 mmHg 64%
    17:00 +23°C° 0 mm 2 mps 762 mmHg 69%
    18:00 +22°C° 0 mm 1 mps 762 mmHg 75%
    19:00 +22°C° 0 mm 1 mps 763 mmHg 74%
    20:00 +20°C° 0 mm 2 mps 764 mmHg 73%
    21:00 +20°C° 0 mm 2 mps 764 mmHg 73%
    22:00 +19°C° 0 mm 2 mps 764 mmHg 77%
    23:00 +18°C° 0 mm 2 mps 764 mmHg 81%

    Tomorrow, 22 January, Wednesday

    Time Temperature Precipitation Wind Pressure Humidity
    00:00 +19°C° 0 mm 1 mps 764 mmHg 85%
    01:00 +18°C° 0 mm 1 mps 763 mmHg 87%
    02:00 +17°C° 0 mm 2 mps 763 mmHg 89%
    03:00 +16°C° 0 mm 2 mps 763 mmHg 91%
    04:00 +16°C° 0 mm 2 mps 763 mmHg 92%
    05:00 +16°C° 0 mm 1 mps 763 mmHg 94%
    06:00 +15°C° 0 mm 1 mps 763 mmHg 95%
    07:00 +17°C° 0 mm 2 mps 763 mmHg 89%
    08:00 +18°C° 0 mm 2 mps 763 mmHg 83%
    09:00 +20°C° 0 mm 2 mps 763 mmHg 76%
    10:00 +21°C° 0 mm 2 mps 763 mmHg 70%
    11:00 +24°C° 0 mm 2 mps 763 mmHg 63%
    12:00 +25°C° 0 mm 2 mps 762 mmHg 57%
    13:00 +26°C° 0 mm 2 mps 761 mmHg 57%
    14:00 +26°C° 0 mm 1 mps 760 mmHg 57%
    15:00 +26°C° 0 mm 1 mps 760 mmHg 57%
    16:00 +24°C° 0 mm 1 mps 760 mmHg 64%
    17:00 +23°C° 0 mm 1 mps 760 mmHg 71%
    18:00 +21°C° 0 mm 1 mps 760 mmHg 78%
    19:00 +20°C° 0 mm 1 mps 760 mmHg 81%
    20:00 +20°C° 0 mm 1 mps 761 mmHg 84%
    21:00 +19°C° 0 mm 1 mps 761 mmHg 87%
    22:00 +19°C° 0 mm 1 mps 761 mmHg 88%
    23:00 +19°C° 0 mm 1 mps 761 mmHg 89%

    Day after tomorrow, 23 January, Thursday

    Time Temperature Precipitation Wind Pressure Humidity
    00:00 +19°C° 0 mm 1 mps 760 mmHg 90%
    01:00 +19°C° 0 mm 1 mps 760 mmHg 90%
    02:00 +17°C° 0 mm 0 mps 759 mmHg 91%
    03:00 +17°C° 0 mm 0 mps 759 mmHg 91%
    04:00 +16°C° 0 mm 0 mps 759 mmHg 92%
    05:00 +16°C° 0 mm 0 mps 759 mmHg 92%
    06:00 +18°C° 0 mm 1 mps 759 mmHg 92%
    07:00 +20°C° 0 mm 1 mps 759 mmHg 87%
    08:00 +22°C° 0 mm 1 mps 760 mmHg 82%
    09:00 +23°C° 0 mm 1 mps 760 mmHg 77%
    10:00 +25°C° 0 mm 1 mps 760 mmHg 72%
    11:00 +26°C° 0 mm 2 mps 760 mmHg 67%
    12:00 +28°C° 0 mm 2 mps 759 mmHg 62%
    13:00 +27°C° 0 mm 2 mps 758 mmHg 65%
    14:00 +27°C° 0 mm 2 mps 758 mmHg 67%
    15:00 +26°C° 0 mm 2 mps 757 mmHg 70%
    16:00 +25°C° 0 mm 2 mps 757 mmHg 75%
    17:00 +24°C° 0 mm 2 mps 757 mmHg 80%
    18:00 +22°C° 0 mm 1 mps 758 mmHg 84%
    19:00 +22°C° 0 mm 1 mps 758 mmHg 85%
    20:00 +21°C° 0 mm 2 mps 759 mmHg 86%
    21:00 +20°C° 0 mm 2 mps 759 mmHg 87%
    22:00 +21°C° 0 mm 1 mps 759 mmHg 89%
    23:00 +21°C° 0 mm 1 mps 759 mmHg 90%

    24 January, Friday

    Time Temperature Precipitation Wind Pressure Humidity
    00:00 +20°C° 0 mm 1 mps 759 mmHg 91%
    01:00 +20°C° 0 mm 1 mps 759 mmHg 92%
    02:00 +18°C° 0 mm 0 mps 759 mmHg 92%
    03:00 +18°C° 0 mm 0 mps 758 mmHg 93%
    04:00 +18°C° 0 mm 0 mps 759 mmHg 93%
    05:00 +18°C° 0 mm 0 mps 759 mmHg 93%
    06:00 +17°C° 0 mm 0 mps 759 mmHg 94%
    07:00 +19°C° 0 mm 0 mps 760 mmHg 87%
    08:00 +21°C° 0 mm 0 mps 760 mmHg 80%
    09:00 +23°C° 0 mm 0 mps 761 mmHg 73%
    10:00 +26°C° 0 mm 1 mps 761 mmHg 69%
    11:00 +27°C° 0 mm 1 mps 760 mmHg 65%
    12:00 +28°C° 0 mm 1 mps 760 mmHg 60%
    13:00 +28°C° 0 mm 1 mps 759 mmHg 61%
    14:00 +28°C° 0 mm 1 mps 759 mmHg 62%
    15:00 +28°C° 0 mm 1 mps 758 mmHg 62%
    16:00 +26°C° 0 mm 1 mps 758 mmHg 68%
    17:00 +25°C° 0 mm 1 mps 759 mmHg 74%
    18:00 +23°C° 0 mm 1 mps 759 mmHg 80%
    19:00 +23°C° 0 mm 1 mps 759 mmHg 82%
    20:00 +22°C° 0 mm 1 mps 760 mmHg 83%
    21:00 +21°C° 0 mm 1 mps 760 mmHg 85%
    22:00 +21°C° 0 mm 1 mps 760 mmHg 86%
    23:00 +21°C° 0 mm 1 mps 760 mmHg 87%

    25 January, Saturday

    Time Temperature Precipitation Wind Pressure Humidity
    00:00 +20°C° 0 mm 1 mps 760 mmHg 88%
    01:00 +20°C° 0 mm 1 mps 760 mmHg 88%
    02:00 +18°C° 0 mm 0 mps 759 mmHg 89%
    03:00 +18°C° 0 mm 0 mps 759 mmHg 89%
    04:00 +18°C° 0 mm 0 mps 759 mmHg 90%
    05:00 +18°C° 0 mm 0 mps 760 mmHg 90%
    06:00 +18°C° 0 mm 0 mps 760 mmHg 90%
    07:00 +21°C° 0 mm 1 mps 760 mmHg 84%
    08:00 +23°C° 0 mm 1 mps 761 mmHg 77%
    09:00 +25°C° 0 mm 1 mps 761 mmHg 71%
    10:00 +27°C° 0 mm 1 mps 761 mmHg 67%
    11:00 +28°C° 0 mm 2 mps 761 mmHg 62%
    12:00 +29°C° 0 mm 2 mps 761 mmHg 58%
    13:00 +29°C° 0 mm 2 mps 760 mmHg 58%
    14:00 +29°C° 0 mm 2 mps 760 mmHg 58%
    15:00 +29°C° 0 mm 3 mps 759 mmHg 59%
    16:00 +27°C° 0 mm 2 mps 760 mmHg 65%
    17:00 +25°C° 0 mm 2 mps 760 mmHg 71%
    18:00 +24°C° 0 mm 2 mps 760 mmHg 78%
    19:00 +23°C° 0 mm 1 mps 760 mmHg 80%
    20:00 +22°C° 0 mm 1 mps 761 mmHg 82%
    21:00 +22°C° 0 mm 1 mps 761 mmHg 84%
    22:00 +21°C° 0 mm 1 mps 761 mmHg 86%
    23:00 +19°C° 0 mm 0 mps 761 mmHg 87%

    26 January, Sunday

    Time Temperature Precipitation Wind Pressure Humidity
    00:00 +19°C° 0 mm 0 mps 760 mmHg 89%
    01:00 +19°C° 0 mm 0 mps 760 mmHg 90%
    02:00 +18°C° 0 mm 0 mps 760 mmHg 91%
    03:00 +18°C° 0 mm 0 mps 759 mmHg 92%
    04:00 +18°C° 0 mm 0 mps 759 mmHg 92%
    05:00 +18°C° 0 mm 0 mps 759 mmHg 92%
    06:00 +18°C° 0 mm 0 mps 760 mmHg 92%
    07:00 +20°C° 0 mm 0 mps 760 mmHg 86%
    08:00 +22°C° 0 mm 0 mps 760 mmHg 79%
    09:00 +24°C° 0 mm 0 mps 761 mmHg 72%
    10:00 +27°C° 0 mm 1 mps 760 mmHg 69%
    11:00 +28°C° 0 mm 1 mps 760 mmHg 66%
    12:00 +29°C° 0 mm 2 mps 760 mmHg 63%
    13:00 +29°C° 0 mm 2 mps 759 mmHg 65%
    14:00 +29°C° 0 mm 2 mps 758 mmHg 66%
    15:00 +29°C° 0 mm 3 mps 757 mmHg 68%
    16:00 +27°C° 0 mm 2 mps 758 mmHg 74%
    17:00 +26°C° 0 mm 2 mps 758 mmHg 81%
    18:00 +24°C° 0 mm 2 mps 758 mmHg 87%
    19:00 +24°C° 0 mm 1 mps 758 mmHg 89%
    20:00 +23°C° 0 mm 1 mps 759 mmHg 92%
    21:00 +23°C° 0 mm 1 mps 759 mmHg 94%
    22:00 +22°C° 0 mm 1 mps 759 mmHg 94%
    23:00 +22°C° 0 mm 1 mps 759 mmHg 95%
    Show more